Simultaneous Nadir Overpasses (SNOs) Predictions

Prediction of SNOs between GOES-16 and AQUA Satellite Orbit:

Table of predicted SNOs for the next 14.0 days since TLE Epoch: 9/4/2021
Index Date Time (GOES-16) GOES-16 Lat,Lon AQUA Lat,Lon Distance(km) Time Diff (sec)
1 09/05/2021 06:29:31 -0.14, -75.20 -0.42, -73.90 147.22 80
2 09/05/2021 18:50:56 0.14, -75.20 -0.66, -79.10 442.41 80
3 09/07/2021 06:17:20 -0.14, -75.20 -1.04, -70.95 483.97 80
4 09/07/2021 18:38:45 0.14, -75.21 -0.03, -76.14 105.41 80
5 09/09/2021 18:29:14 0.14, -75.23 0.60, -73.19 232.18 80
6 09/10/2021 06:50:29 -0.14, -75.22 0.53, -78.34 354.29 80
7 09/12/2021 06:38:18 -0.14, -75.24 -0.10, -75.38 16.62 80
8 09/14/2021 06:23:27 -0.15, -75.26 -0.74, -72.43 321.18 80
9 09/14/2021 18:44:51 0.15, -75.26 -0.38, -77.62 268.20 80
10 09/16/2021 18:35:20 0.16, -75.29 0.27, -74.66 70.31 80
